Location: Berg
(48.4333°N, 13.9167°E)
Time: 05:39:21
(UTC+00:00)

Cosmos 2151 Rocket - Pass Details

Date: 18 September 2020
Orbit: 618 x 642 km, 82.5° (Epoch: 27 October)

Event Time Altitude Azimuth Distance (km) Brightness Sun altitude
Rises 18:44:14 0° 180° (S) 2,900 6.8 -16.1°
Reaches altitude 10° 18:46:27 10° 178° (S) 2,002 5.9 -16.4°
Maximum altitude 18:50:52 67° 96° (E) 690 3.5 -17.1°
Drops below altitude 10° 18:55:20 10° 15° (NNE) 2,034 6.3 -17.8°
Sets 18:57:36 0° 12° (NNE) 2,951 7.2 -18.1°
